Regional Weather Roundup
Issued by NWS Newport/Morehead, NC

Current Version | Previous Version | Graphics & Text | Print | Product List | Glossary Off
Versions: 1 2 3 4 5 6 7 8 9 10 11 12 13 14 15 16 17 18 19 20 21 22 23 24 25 26 27 28 29 30 31 32 33 34 35 36 37 38 39 40 41 42 43 44 45 46 47 48 49 50

000
ASUS42 KMHX 231925
RWRMHX
WEATHER ROUNDUP FOR EASTERN NORTH CAROLINA
NATIONAL WEATHER SERVICE NEWPORT/MOREHEAD CITY NC
300 PM EDT MON APR 23 2018

NOTE: "FAIR" INDICATES FEW OR NO CLOUDS BELOW 12,000 FEET
WITH NO SIGNIFICANT WEATHER AND/OR OBSTRUCTIONS TO VISIBILITY

NCZ015>017-031-032-045>047-102-103-232000-
NORTH COAST

CITY           SKY/WX    TMP DP  RH WIND       PRES   REMARKS
EDENTON        CLOUDY    66  53  62 E14       30.36F
ELIZABETH CITY FAIR      65  48  54 E17       30.40S
KITTY HAWK     FAIR      59  47  66 E9        30.38F
MANTEO         FAIR      62  48  60 E15       30.39F

$$

NCZ045>047-081-094-103-104-232000-
CENTRAL COAST

CITY           SKY/WX    TMP DP  RH WIND       PRES   REMARKS
FRISCO         FAIR      67  52  58 E16G22    30.37S

$$

NCZ095-097-098-100-101-232000-
SOUTHERN COAST

CITY           SKY/WX    TMP DP  RH WIND       PRES   REMARKS
BEAUFORT       FAIR      69  53  56 E12G22    30.33S
CEDAR ISLAND   NOT AVBL
JACKSONVILLE   CLOUDY    68  51  54 E21G29    30.30F
PINEY ISLAND   NOT AVBL
WILMINGTON     CLOUDY    66  55  67 E17G24    30.26F


$$

NCZ011>013-027>030-043-044-078>080-089-090>093-098-232000-
COASTAL PLAIN

CITY           SKY/WX    TMP DP  RH WIND       PRES   REMARKS
AHOSKIE        PTSUNNY   66  49  53 SE12G17   30.33F
CLINTON        CLOUDY    64  55  75 E6G18     30.26F
ELIZABETHTOWN  CLOUDY    63  58  82 MISG      30.24F
GOLDSBORO      PTSUNNY   68  51  52 E10G22    30.26F
GREENVILLE     FAIR      68  50  52 SE21G29   30.32F
HAVELOCK       CLOUDY    70  55  59 E18       30.34S
KENANSVILLE    LGT RAIN  64  52  63 E8G23     30.26F
KINSTON        PTSUNNY   70  50  49 SE14G24   30.31F
NEW BERN       FAIR      68  53  58 SE9G24    30.34S
RICHLANDS      PTSUNNY   68  51  54 E16G30    30.31F
ROCKY MOUNT    FAIR      67  48  50 E13G25    30.29F
WASHINGTON     FAIR      67  50  53 E17G24    30.33F
WHITEVILLE     LGT RAIN  63  58  85 E12G18    30.22F

$$

AMZ130-135-150-152-154-156-158-170-250-252-270-ANZ085-086-088-633-658-670-232000-
MARINE OBSERVATIONS

STATION/POSITION TIME  TEMP    WIND        PRES    WAVE   SWELL
                       AIR SEA DIR/SP/G            HT/PER HT/PER
                 (UTC) (F)     (DEG/KT/KT) (MB)    (FT/S) (FT/S)
CHESAPEAKE LIGHT NOT AVBL
64 E VA BEACH    1850   54 50   90/ 10/ 12 1030.9    3/ 5   2/ 8
DUCK             1900   57 54   80/ 16/ 18 1028.9
2 E DUCK         1900      54                N/A     3/ 4
OREGON INLET     1900   58 58   70/  9/ 12 1028.7
13E OREGON INLT  1848      53                N/A     3/ 5   3/ 5
HATTERAS CG      1900   65     110/ 11/ 15 1027.7
DIAMOND BUOY     1910   67 72  100/ 19/ 25 1028.1
CAPE LOOKOUT     1900          110/ 14/ 15 1027.0
BEAUFORT LAB     1900   66 63  120/ 13/ 17 1027.2
30 SE NEW RVR IN 1908   67 65  110/ 17/ 23 1025.4
30 SE NEW RVR IN 1900      65                N/A     8/ 7
27 SE WRIGHTSVLE 1908   67 65  120/ 21/ 29 1024.7
5 SE WRIGHTSVLE  1908   64 61  110/ 12/ 17 1024.4
225 S CAPE HAT   1910   69 72  100/ 21/ 25 1024.2
41 SE CHARLESTON 1910   68 67  110/ 27/ 35 1017.8

$$




USA.gov is the U.S. government's official web portal to all federal, state and local government web resources and services.